Regional Weather Roundup
Issued by NWS

Home | Current Version | Previous Version | Graphics & Text | Print | Product List | Glossary On
Versions: 1 2 3 4 5 6 7 8 9 10 11 12 13 14 15 16 17 18 19 20 21 22 23 24 25 26 27 28
000
ASUS45 KCYS 202310
RWRWY

WYOMING REGIONAL WEATHER ROUNDUP
NATIONAL WEATHER SERVICE CHEYENNE WY
500 PM MDT SUN MAY 20 2018

NOTE:  "FAIR" INDICATES FEW OR NO CLOUDS BELOW 12,000 FEET
WITH NO SIGNIFICANT WEATHER AND/OR OBSTRUCTIONS TO VISIBILITY.

WYZ001-210000-
YELLOWSTONE NATIONAL PARK

CITY           SKY/WX    TMP DP  RH WIND       PRES   REMARKS
LK YELLOWSTONE   N/A     57  33  40 VRB3      30.09F
W YELLOWSTONE  NOT AVBL

$$
WYZ002>013-054>058-071-098>099-210000-
NORTHERN WYOMING

CITY           SKY/WX    TMP DP  RH WIND       PRES   REMARKS
JACKSON        PTSUNNY   65  38  36 CALM      29.99F
CODY           FAIR      68  41  37 SE9G16    29.99F
GREYBULL       FAIR      74  41  30 SE8       29.92F
WORLAND        FAIR      71  47  42 VRB3      29.93F
SHERIDAN       FAIR      67  45  45 SE14      29.96F
BUFFALO        FAIR      67  42  40 SE18G25   30.02F
GILLETTE       FAIR      63  44  50 SE20G26   30.05F
NEWCASTLE      FAIR      59  34  38 S13       30.12F

$$
WYZ014>020-022>026-101>103-210000-
CENTRAL WYOMING

CITY           SKY/WX    TMP DP  RH WIND       PRES   REMARKS
BIG PINEY      FAIR      64  32  30 W7        30.05F
PINEDALE       FAIR      63  34  34 E6        30.06F
DUBOIS         FAIR      57  37  47 SE14      30.05F
LANDER         FAIR      63  48  58 CALM      29.99F
RIVERTON       FAIR      64  46  52 VRB3      30.01F
CASPER         FAIR      64  45  49 E9G21     30.03F
DOUGLAS        FAIR      63  47  55 SE18G28   30.08F

$$
WYZ021-027>030-104>119-210000-
SOUTHERN WYOMING

CITY           SKY/WX    TMP DP  RH WIND       PRES   REMARKS
EVANSTON       CLOUDY    53  41  63 S15       30.10F
KEMMERER       FAIR      54  34  47 SW24G36   30.09R
FORT BRIDGER   MOCLDY    58  36  43 S24G30    30.12F
ROCK SPRINGS   PTSUNNY   65  33  30 CALM      30.04F
DIXON          FAIR      71  31  23 SE16      30.04F
RAWLINS        FAIR      66  32  28 MISG      30.05F
SARATOGA       MOCLDY    68  30  24 NE9       30.06F
LARAMIE        FAIR      51  39  63 S18       30.12R
CHEYENNE       CLOUDY    50  42  74 S14       30.15F
TORRINGTON     FAIR      62  46  55 SE16      30.09F
PINE BLUFFS    CLOUDY    55  41  58 SE9       30.14S

$$




USA.gov is the U.S. government's official web portal to all federal, state and local government web resources and services.